Content
SEND FEEDBACK

Daily
Averages
Monthly
Summary
United States of America

CHICAGO, ILLINOIS


Home > North America > United States > Illinois
Elevation: 674 feet     Latitude: 41 59N     Longitude: 087 54W

WEATHER
 
SELECT A DAY
Number of Records: 195,110;   Date Range: 7/8/95 - 9/18/14
 
SHARE

PRINT THIS DATA

[ ← Previous Day ]
WEATHER ALMANAC - SEPTEMBER 18, 2013
[ Next Day → ]
[ °C ]   °F
Weather ElementAverageHighLow
Temperature70.3 °F81 °F (12:52 pm)61 °F (1:52 am)
Dewpoint59.8 °F66.9 °F (5:52 pm)51.1 °F (3:52 am)
Humidity70.2 %84 % (6:52 pm)52 % (11:52 am)
Barometer30.01 in30.12 in (1:52 am)29.94 in (4:52 pm)
Wind Speed7.2 mph11.5 mph (9:52 am)
Wind Gust16.1 mph (2:52 pm)
Weather ElementAverage
Visibility9.7 mi
Wind DirectionSSE (167.4 °)

Weather ElementTotal
Precipitation0.01 in
Cooling Degree Days6 (Base 65)
Growing Degree Days21 (Base 50)
Averaged from 27 records on September 18, 2013
WEATHER CONDITIONS BREAKOUT
WIND DIRECTION BREAKOUT
WEATHER BY HOUR - SEPTEMBER 18, 2013
[ °C ]   °F
Local TimeTemperatureDewpointHumidityBarometerVisibilityWind DirectionWind SpeedGust SpeedPrecipitationEventsConditions
1:52 AM61.0 °F52.0 °F72 %30.12 in10.0 miCalmMostly Cloudy
2:52 AM61.0 °F52.0 °F72 %30.11 in10.0 miSSE (150°)4.6 mphMostly Cloudy
3:52 AM61.0 °F51.1 °F70 %30.10 in10.0 miSSE (160°)4.6 mphOvercast
4:52 AM62.1 °F51.1 °F67 %30.09 in10.0 miSE (140°)3.5 mphMostly Cloudy
5:52 AM61.0 °F51.1 °F70 %30.09 in10.0 miSSE (150°)4.6 mphOvercast
6:52 AM61.0 °F52.0 °F72 %30.10 in10.0 miSSE (160°)4.6 mphMostly Cloudy
7:52 AM64.0 °F53.1 °F67 %30.10 in10.0 miSSE (160°)5.8 mphOvercast
8:52 AM66.0 °F54.0 °F65 %30.09 in10.0 miSouth (170°)5.8 mphMostly Cloudy
9:52 AM72.0 °F55.9 °F57 %30.07 in10.0 miSouth (180°)11.5 mphClear
10:52 AM73.9 °F57.0 °F55 %30.06 in10.0 miSouth (180°)11.5 mphPartly Cloudy
11:52 AM78.1 °F59.0 °F52 %30.04 in10.0 miSSW (200°)10.4 mphClear
12:52 PM81.0 °F62.1 °F52 %30.02 in10.0 miSouth (180°)11.5 mphPartly Cloudy
1:52 PM80.1 °F62.1 °F54 %30.00 in9.0 miSouth (190°)10.4 mphMostly Cloudy
2:52 PM80.1 °F63.0 °F56 %29.99 in9.0 miSSW (210°)10.4 mph16.1 mphOvercast
3:52 PM78.1 °F64.9 °F64 %29.97 in9.0 miSSW (200°)6.9 mph0.00 inScattered Clouds
4:52 PM78.1 °F64.9 °F64 %29.94 in9.0 miSSW (200°)9.2 mphClear
5:52 PM73.9 °F66.9 °F79 %29.94 in8.0 miSSW (210°)9.2 mph0.01 inScattered Clouds
6:04 PM73.4 °F66.2 °F78 %29.96 in8.0 miSW (230°)8.1 mphThunderstormMostly Cloudy
6:52 PM70.0 °F64.9 °F84 %29.94 in9.0 miSouth (190°)10.4 mph0.00 inRain-ThunderstormLight Rain
7:52 PM71.1 °F64.9 °F81 %29.94 in10.0 miCalm0.00 inThunderstormClear
8:14 PM71.6 °F64.4 °F78 %29.95 in10.0 miSSW (210°)6.9 mphMostly Cloudy
8:35 PM69.8 °F64.4 °F83 %29.96 in10.0 miSouth (180°)6.9 mphThunderstormThunderstorm
8:50 PM69.8 °F64.4 °F83 %29.96 in10.0 miSouth (180°)5.8 mphClear
8:52 PM69.1 °F64.0 °F84 %29.96 in10.0 miSouth (180°)5.8 mphClear
9:52 PM69.1 °F63.0 °F81 %29.96 in10.0 miSouth (170°)6.9 mphClear
10:52 PM70.0 °F63.0 °F78 %29.96 in10.0 miSouth (170°)9.2 mphOvercast
11:52 PM71.1 °F64.0 °F78 %29.96 in10.0 miSouth (170°)9.2 mphMostly Cloudy
Hourly data recorded from KPWK, located miles away from Chicago, Illinois







STORIES FROM OUR PARTNERS